TimeEET,TemperatureF,Dew PointF,Humidity,Sea Level PressureIn,VisibilityMPH,Wind Direction,Wind SpeedMPH,Gust SpeedMPH,PrecipitationIn,Events,Conditions,WindDirDegrees,DateUTC
12:00 AM,77.0,59.0,54,29.83,-9999.0,Calm,Calm,-,N/A,,Clear,0,2012-10-18 22:00:00
1:00 AM,78.8,55.4,44,29.83,-9999.0,WNW,5.8,-,N/A,,Clear,300,2012-10-18 23:00:00
2:00 AM,79,61,44,29.83,6,NW,6.9,,,,Clear,320,2012-10-19 00:00:00
2:00 AM,78.8,60.8,54,29.83,-9999.0,NW,6.9,-,N/A,,Clear,320,2012-10-19 00:00:00
3:00 AM,78.8,60.8,54,29.80,-9999.0,WNW,11.5,-,N/A,,Clear,300,2012-10-19 01:00:00
4:00 AM,77.0,57.2,50,29.83,-9999.0,West,11.5,-,N/A,,Clear,280,2012-10-19 02:00:00
5:00 AM,78.8,57.2,47,29.80,-9999.0,North,5.8,-,N/A,,Clear,350,2012-10-19 03:00:00
6:00 AM,78.8,60.8,54,29.83,-9999.0,NNW,10.4,-,N/A,,Clear,340,2012-10-19 04:00:00
7:00 AM,80.6,60.8,51,29.83,-9999.0,NW,13.8,-,N/A,,Clear,320,2012-10-19 05:00:00
8:00 AM,82,60,36,29.86,6,NNW,10.4,,,,Mostly Cloudy,340,2012-10-19 06:00:00
8:00 AM,82.4,59.0,45,29.86,-9999.0,NNW,10.4,-,N/A,,Clear,340,2012-10-19 06:00:00
9:00 AM,82.4,64.4,54,29.89,-9999.0,NNW,10.4,-,N/A,,Clear,340,2012-10-19 07:00:00
10:00 AM,84.2,66.2,55,29.86,-9999.0,North,8.1,-,N/A,,Clear,360,2012-10-19 08:00:00
11:00 AM,84.2,68.0,58,29.86,-9999.0,North,10.4,-,N/A,,Clear,360,2012-10-19 09:00:00
12:00 PM,84.2,68.0,58,29.83,-9999.0,NNW,8.1,-,N/A,,Clear,340,2012-10-19 10:00:00
1:00 PM,86.0,68.0,55,29.80,6.2,North,4.6,-,N/A,,Scattered Clouds,360,2012-10-19 11:00:00
2:00 PM,87,71,51,29.82,6,Calm,Calm,,,,Mostly Cloudy,,2012-10-19 12:00:00
2:00 PM,86.0,71.6,62,29.80,6.2,Calm,Calm,-,N/A,,Mostly Cloudy,0,2012-10-19 12:00:00
3:00 PM,87.8,66.2,49,29.80,6.2,NE,5.8,-,N/A,,Mostly Cloudy,50,2012-10-19 13:00:00
4:00 PM,86.0,66.2,51,29.80,-9999.0,Calm,Calm,-,N/A,,Clear,0,2012-10-19 14:00:00
6:00 PM,84.2,68.0,58,29.80,-9999.0,Calm,Calm,-,N/A,,Clear,0,2012-10-19 16:00:00
7:00 PM,84.2,69.8,62,29.80,-9999.0,South,4.6,-,N/A,,Clear,190,2012-10-19 17:00:00
8:00 PM,83,71,58,29.84,6,Calm,Calm,,,,Mostly Cloudy,,2012-10-19 18:00:00
8:00 PM,82.4,71.6,70,29.83,-9999.0,Calm,Calm,-,N/A,,Clear,0,2012-10-19 18:00:00
9:00 PM,82.4,68.0,62,29.83,-9999.0,North,8.1,-,N/A,,Clear,350,2012-10-19 19:00:00
10:00 PM,80.6,73.4,79,29.83,-9999.0,NW,6.9,-,N/A,,Clear,320,2012-10-19 20:00:00
11:00 PM,78.8,69.8,74,29.83,-9999.0,WNW,6.9,-,N/A,,Clear,300,2012-10-19 21:00:00